IGO7VN VOBL-VOMM

Flight info

Callsign IGO7VN
Flight time 0h 31m
Altitude 19000
Route BIA W116 MMV
Aircraft A320/M-SDE3FGHIRWY/LB1

Departure

Time 2026-05-08 06:11
Airport Kempegowda International Airport Bengaluru (VOBL)

Arrival

Time 2026-05-08 06:42
Airport Chennai International Airport (VOMM)
Time Latitude Longitude Altitude Speed Heading
2026-05-08 05:37 13.20175 77.70797 3011 ft 0 kts 180°
2026-05-08 05:57 13.20176 77.70797 3011 ft 2 kts 180°
2026-05-08 05:58 13.20198 77.70797 3011 ft 3 kts 180°
2026-05-08 05:58 13.20217 77.70797 3018 ft 3 kts 192°
2026-05-08 05:58 13.20235 77.70805 3019 ft 3 kts 234°
2026-05-08 05:58 13.20243 77.70825 3017 ft 3 kts 267°
2026-05-08 05:59 13.20243 77.70844 3011 ft 1 kts 270°
2026-05-08 05:59 13.20243 77.70845 3011 ft 0 kts 270°
2026-05-08 06:02 13.20243 77.70844 3011 ft 1 kts 270°
2026-05-08 06:02 13.20243 77.70840 3011 ft 2 kts 270°
2026-05-08 06:03 13.20243 77.70821 3014 ft 4 kts 270°
2026-05-08 06:03 13.20244 77.70785 3014 ft 6 kts 270°
2026-05-08 06:03 13.20244 77.70734 3011 ft 8 kts 270°
2026-05-08 06:03 13.20245 77.70670 3011 ft 10 kts 271°
2026-05-08 06:04 13.20245 77.70592 3011 ft 12 kts 270°
2026-05-08 06:04 13.20246 77.70501 3011 ft 14 kts 270°
2026-05-08 06:04 13.20250 77.70417 3011 ft 9 kts 281°
2026-05-08 06:04 13.20299 77.70391 3011 ft 10 kts
2026-05-08 06:05 13.20372 77.70392 3011 ft 12 kts
2026-05-08 06:05 13.20463 77.70393 3011 ft 14 kts
2026-05-08 06:05 13.20533 77.70362 3011 ft 11 kts 290°
2026-05-08 06:05 13.20534 77.70278 3012 ft 13 kts 270°
2026-05-08 06:06 13.20535 77.70182 3012 ft 14 kts 270°
2026-05-08 06:06 13.20536 77.70075 3012 ft 16 kts 270°
2026-05-08 06:06 13.20537 77.69952 3011 ft 18 kts 270°
2026-05-08 06:06 13.20537 77.69815 3012 ft 20 kts 270°
2026-05-08 06:07 13.20539 77.69665 3011 ft 22 kts 271°
2026-05-08 06:07 13.20542 77.69500 3011 ft 24 kts 270°
2026-05-08 06:07 13.20542 77.69319 3011 ft 26 kts 270°
2026-05-08 06:07 13.20543 77.69125 3011 ft 28 kts 270°
2026-05-08 06:08 13.20545 77.68916 3011 ft 30 kts 270°
2026-05-08 06:08 13.20547 77.68754 3011 ft 14 kts 270°
2026-05-08 06:08 13.20548 77.68651 3012 ft 9 kts 271°
2026-05-08 06:08 13.20574 77.68616 3012 ft 7 kts 344°
2026-05-08 06:09 13.20631 77.68615 3012 ft 9 kts
2026-05-08 06:09 13.20698 77.68629 3011 ft 11 kts 31°
2026-05-08 06:09 13.20719 77.68708 3011 ft 13 kts 94°
2026-05-08 06:09 13.20719 77.68740 3011 ft 1 kts 90°
2026-05-08 06:10 13.20719 77.68812 3011 ft 36 kts 90°
2026-05-08 06:10 13.20715 77.69316 3011 ft 103 kts 91°
2026-05-08 06:10 13.20706 77.70240 3012 ft 152 kts 90°
2026-05-08 06:10 13.20695 77.71442 3247 ft 177 kts 89°
2026-05-08 06:11 13.20965 77.72668 4072 ft 176 kts 65°
2026-05-08 06:11 13.21569 77.73780 4590 ft 188 kts 62°
2026-05-08 06:11 13.22255 77.75022 4847 ft 211 kts 63°
2026-05-08 06:11 13.22751 77.75927 4999 ft 226 kts 62°
2026-05-08 06:12 13.23855 77.77948 5499 ft 259 kts 61°
2026-05-08 06:12 13.24449 77.79035 5853 ft 266 kts 62°
2026-05-08 06:12 13.25361 77.80703 5981 ft 267 kts 61°
2026-05-08 06:12 13.26258 77.82348 5993 ft 267 kts 62°
2026-05-08 06:13 13.26855 77.84128 5998 ft 265 kts 86°
2026-05-08 06:13 13.26807 77.86017 6102 ft 270 kts 91°
2026-05-08 06:13 13.26777 77.87950 6987 ft 270 kts 89°
2026-05-08 06:13 13.26768 77.89882 7872 ft 273 kts 89°
2026-05-08 06:14 13.26763 77.91851 8750 ft 276 kts 88°
2026-05-08 06:14 13.26757 77.93811 9616 ft 278 kts 88°
2026-05-08 06:14 13.26747 77.95812 10416 ft 281 kts 88°
2026-05-08 06:14 13.26733 77.97850 11120 ft 287 kts 89°
2026-05-08 06:15 13.26717 77.99895 11808 ft 292 kts 89°
2026-05-08 06:15 13.26697 78.02004 12537 ft 296 kts 89°
2026-05-08 06:15 13.26672 78.04141 13268 ft 300 kts 89°
2026-05-08 06:15 13.26647 78.06275 13957 ft 304 kts 90°
2026-05-08 06:16 13.26594 78.08471 14577 ft 309 kts 95°
2026-05-08 06:16 13.26174 78.10676 14960 ft 324 kts 105°
2026-05-08 06:16 13.25510 78.12969 15085 ft 345 kts 106°
2026-05-08 06:16 13.24805 78.15348 15454 ft 355 kts 106°
2026-05-08 06:17 13.23328 78.20291 16474 ft 367 kts 107°
2026-05-08 06:17 13.22586 78.22785 16968 ft 372 kts 107°
2026-05-08 06:17 13.21824 78.25358 17485 ft 377 kts 107°
2026-05-08 06:18 13.21063 78.27940 17988 ft 382 kts 107°
2026-05-08 06:18 13.20288 78.30576 18447 ft 388 kts 107°
2026-05-08 06:18 13.19499 78.33253 18824 ft 391 kts 108°
2026-05-08 06:18 13.18717 78.35898 18932 ft 389 kts 108°
2026-05-08 06:19 13.17935 78.38540 18957 ft 383 kts 108°
2026-05-08 06:19 13.17158 78.41163 18962 ft 381 kts 108°
2026-05-08 06:19 13.16396 78.43736 18957 ft 380 kts 108°
2026-05-08 06:19 13.15627 78.46333 18959 ft 380 kts 108°
2026-05-08 06:20 13.14855 78.48945 18954 ft 380 kts 108°
2026-05-08 06:20 13.14092 78.51526 18954 ft 380 kts 108°
2026-05-08 06:20 13.13322 78.54129 18959 ft 380 kts 108°
2026-05-08 06:20 13.12559 78.56706 18956 ft 380 kts 108°
2026-05-08 06:21 13.11787 78.59304 18945 ft 380 kts 108°
2026-05-08 06:21 13.11017 78.61901 18952 ft 380 kts 108°
2026-05-08 06:21 13.10247 78.64500 18948 ft 380 kts 108°
2026-05-08 06:21 13.09483 78.67069 18944 ft 380 kts 108°
2026-05-08 06:22 13.08708 78.69673 18941 ft 380 kts 109°
2026-05-08 06:22 13.07934 78.72274 18950 ft 381 kts 108°
2026-05-08 06:22 13.07160 78.74877 18950 ft 381 kts 108°
2026-05-08 06:22 13.06397 78.77451 18950 ft 381 kts 108°
2026-05-08 06:23 13.05627 78.80044 18945 ft 381 kts 108°
2026-05-08 06:23 13.04851 78.82652 18954 ft 380 kts 108°
2026-05-08 06:23 13.04078 78.85253 18948 ft 380 kts 108°
2026-05-08 06:23 13.03317 78.87836 18925 ft 381 kts 108°
2026-05-08 06:24 13.02545 78.90441 18923 ft 379 kts 108°
2026-05-08 06:24 13.01775 78.93026 18920 ft 378 kts 108°
2026-05-08 06:24 13.01012 78.95580 18922 ft 378 kts 108°
2026-05-08 06:24 13.00238 78.98162 18913 ft 377 kts 108°
2026-05-08 06:25 12.99474 79.00711 18914 ft 377 kts 109°
2026-05-08 06:25 12.98701 79.03292 18909 ft 377 kts 108°
2026-05-08 06:25 12.97931 79.05868 18912 ft 377 kts 108°
2026-05-08 06:25 12.97162 79.08439 18906 ft 377 kts 108°
2026-05-08 06:26 12.96401 79.10978 18908 ft 377 kts 108°
2026-05-08 06:26 12.95635 79.13568 18903 ft 377 kts 108°
2026-05-08 06:26 12.94886 79.16115 18909 ft 377 kts 108°
2026-05-08 06:26 12.94129 79.18698 18917 ft 377 kts 108°
2026-05-08 06:27 12.93372 79.21274 18908 ft 377 kts 108°
2026-05-08 06:27 12.92605 79.23872 18902 ft 380 kts 108°
2026-05-08 06:27 12.91857 79.26400 18474 ft 369 kts 108°
2026-05-08 06:27 12.91115 79.28912 17645 ft 364 kts 108°
2026-05-08 06:28 12.90397 79.31351 16710 ft 360 kts 107°
2026-05-08 06:28 12.89660 79.33853 15294 ft 370 kts 106°
2026-05-08 06:28 12.88912 79.36384 13823 ft 378 kts 105°
2026-05-08 06:28 12.88143 79.38985 12411 ft 381 kts 105°
2026-05-08 06:29 12.87392 79.41506 11930 ft 356 kts 105°
2026-05-08 06:29 12.86689 79.43854 11682 ft 329 kts 105°
2026-05-08 06:29 12.86036 79.46050 11323 ft 311 kts 105°
2026-05-08 06:29 12.85421 79.48127 11091 ft 305 kts 105°
2026-05-08 06:30 12.84953 79.50225 10930 ft 295 kts 94°
2026-05-08 06:30 12.84956 79.52313 10586 ft 293 kts 86°
2026-05-08 06:30 12.85062 79.54355 10294 ft 291 kts 85°
2026-05-08 06:30 12.85173 79.56429 9993 ft 288 kts 86°
2026-05-08 06:31 12.85280 79.58474 9679 ft 286 kts 86°
2026-05-08 06:31 12.85384 79.60488 9350 ft 284 kts 86°
2026-05-08 06:31 12.85485 79.62510 8991 ft 283 kts 86°
2026-05-08 06:31 12.85583 79.64513 8396 ft 279 kts 86°
2026-05-08 06:32 12.85679 79.66464 7908 ft 273 kts 86°
2026-05-08 06:32 12.85776 79.68413 7535 ft 274 kts 86°
2026-05-08 06:32 12.85874 79.70382 7167 ft 274 kts 86°
2026-05-08 06:32 12.85970 79.72319 6836 ft 273 kts 86°
2026-05-08 06:33 12.86066 79.74268 6462 ft 274 kts 86°
2026-05-08 06:33 12.86160 79.76186 6163 ft 269 kts 86°
2026-05-08 06:33 12.86222 79.77424 5856 ft 264 kts 86°
2026-05-08 06:34 12.86329 79.79687 5410 ft 260 kts 86°
2026-05-08 06:34 12.86421 79.81548 5050 ft 261 kts 86°
2026-05-08 06:34 12.86548 79.83383 4703 ft 262 kts 80°
2026-05-08 06:35 12.87072 79.85161 4503 ft 255 kts 69°
2026-05-08 06:35 12.87712 79.86823 4411 ft 246 kts 69°
2026-05-08 06:35 12.88309 79.88406 4307 ft 235 kts 69°
2026-05-08 06:35 12.88883 79.89937 4251 ft 221 kts 70°
2026-05-08 06:36 12.89412 79.91348 4182 ft 208 kts 69°
2026-05-08 06:36 12.89912 79.92681 4139 ft 196 kts 70°
2026-05-08 06:36 12.90388 79.93948 4085 ft 182 kts 69°
2026-05-08 06:36 12.90828 79.95119 3942 ft 171 kts 70°
2026-05-08 06:37 12.91243 79.96222 3753 ft 164 kts 69°
2026-05-08 06:37 12.91645 79.97292 3561 ft 159 kts 70°
2026-05-08 06:37 12.92040 79.98341 3353 ft 155 kts 69°
2026-05-08 06:37 12.92421 79.99353 3173 ft 149 kts 69°
2026-05-08 06:38 12.92790 80.00334 2980 ft 145 kts 69°
2026-05-08 06:38 12.93148 80.01284 2811 ft 146 kts 70°
2026-05-08 06:38 12.93533 80.02309 2612 ft 159 kts 70°
2026-05-08 06:38 12.93937 80.03382 2405 ft 160 kts 69°
2026-05-08 06:39 12.94331 80.04428 2205 ft 159 kts 70°
2026-05-08 06:39 12.94730 80.05490 2001 ft 156 kts 69°
2026-05-08 06:39 12.95110 80.06498 1811 ft 145 kts 71°
2026-05-08 06:39 12.95453 80.07410 1633 ft 136 kts 70°
2026-05-08 06:40 12.95795 80.08321 1458 ft 132 kts 71°
2026-05-08 06:40 12.96130 80.09213 1293 ft 136 kts 68°
2026-05-08 06:40 12.96459 80.10088 1109 ft 129 kts 71°
2026-05-08 06:40 12.96787 80.10959 955 ft 131 kts 71°
2026-05-08 06:41 12.97113 80.11827 811 ft 130 kts 71°
2026-05-08 06:41 12.97437 80.12690 632 ft 131 kts 69°
2026-05-08 06:41 12.97675 80.13324 505 ft 131 kts 69°
2026-05-08 06:41 12.97839 80.13762 433 ft 132 kts 70°
2026-05-08 06:42 12.98179 80.14630 270 ft 129 kts 71°
2026-05-08 06:42 12.98485 80.15468 91 ft 125 kts 72°
2026-05-08 06:42 12.98763 80.16227 52 ft 92 kts 70°
2026-05-08 06:42 12.98931 80.16674 53 ft 42 kts 70°
2026-05-08 06:43 12.99019 80.16904 54 ft 34 kts 69°
2026-05-08 06:43 12.99095 80.17110 53 ft 18 kts 69°
2026-05-08 06:43 12.99092 80.17200 53 ft 12 kts 142°
2026-05-08 06:43 12.99062 80.17211 51 ft 0 kts 159°
2026-05-08 06:45 12.99054 80.17214 53 ft 2 kts 159°
2026-05-08 06:45 12.99032 80.17222 54 ft 5 kts 159°
2026-05-08 06:45 12.98977 80.17242 48 ft 11 kts 167°
2026-05-08 06:45 12.98929 80.17196 51 ft 11 kts 252°
2026-05-08 06:46 12.98899 80.17116 51 ft 13 kts 248°
2026-05-08 06:46 12.98862 80.17017 54 ft 16 kts 248°
2026-05-08 06:46 12.98818 80.16900 48 ft 19 kts 249°
2026-05-08 06:46 12.98769 80.16771 54 ft 13 kts 249°
2026-05-08 06:47 12.98699 80.16737 52 ft 14 kts 158°
2026-05-08 06:47 12.98611 80.16770 51 ft 9 kts 184°
2026-05-08 06:47 12.98573 80.16718 52 ft 11 kts 249°
2026-05-08 06:47 12.98543 80.16636 50 ft 14 kts 249°
2026-05-08 06:48 12.98506 80.16537 53 ft 16 kts 249°
2026-05-08 06:48 12.98474 80.16446 54 ft 13 kts 250°
2026-05-08 06:48 12.98445 80.16424 54 ft 5 kts 180°
2026-05-08 06:48 12.98405 80.16439 54 ft 2 kts 156°
2026-05-08 06:49 12.98397 80.16443 47 ft 1 kts 158°
2026-05-08 06:49 12.98395 80.16443 53 ft 0 kts 158°